Temp
4 3 4 5 5 5 5 5 6 5 5 5 6 6 5 6 6 6 6 6 6 6 5 5 5 6 5 5 5 5 4 4 3 3 3 3 3 3 3 3 3 2 2 2
3 3 5 4 4 4 4 4 5 5 5 5 5 6 5 5 5 5 5 6 6 5 6 5 6 6 6 5 5 4 4 4 3 3 3 3 3 3 3 3 2 2 2 2
3 4 4 3 3 3 3 4 4 4 4 4 4 5 5 4 5 5 5 6 6 6 6 5 6 6 6 5 5 4 4 3 3 3 3 3 3 2 2 2 2 2 2 1
1 2 3 3 3 3 3 4 4 3 3 3 4 1 5 5 6 6 5 5 5 5 6 5 5 5 5 5 4 4 4 3 3 3 3 3 2 2 2 2 2 1 1 1
2 2 3 2 3 3 2 3 3 3 3 2 2 2 4 5 5 6 6 5 5 5 5 6 5 5 5 4 4 4 3 3 3 3 2 2 2 2 2 1 1 1 1 1
1 2 2 2 2 2 2 2 2 2 1 -2 2 2 3 4 5 6 5 6 6 6 5 5 5 4 4 4 3 3 3 3 2 2 2 2 2 1 1 1 1 1 1 0
0 1 2 2 2 1 1 1 -1 -1 -4 -3 3 1 3 4 5 5 6 6 6 6 5 4 5 4 4 4 3 3 3 2 2 1 1 1 1 1 1 1 1 0 0 0
0 -0 1 1 1 2 1 1 1 -2 -2 -1 1 0 3 4 4 4 5 5 5 5 5 4 4 4 3 3 3 2 2 1 1 1 1 0 0 0 0 0 0 -0 -0 -0
1 1 1 1 1 1 -0 0 2 1 1 -1 1 2 3 4 4 4 4 4 4 4 4 4 3 3 3 2 1 1 1 1 0 0 0 -0 -1 -1 -1 -1 -1 -1 -1 -1
1 1 -0 -0 -1 -1 0 0 -0 1 -4 -3 2 3 4 5 5 4 4 4 3 4 3 3 3 3 2 0 -0 -0 -0 -0 -0 -1 -1 -1 -1 -1 -1 -1 -2 -1 -1 -1
0 1 -1 -2 -1 -0 -1 -1 0 0 1 -3 -4 1 4 5 5 4 4 3 3 3 2 2 2 2 1 -0 -1 -1 -1 -1 -1 -1 -2 -2 -2 -2 -2 -2 -2 -2 -2 -2
-0 -0 -0 0 -0 -1 -1 -1 -0 1 -1 1 -1 1 4 4 4 4 4 3 2 1 1 1 0 -0 -1 -1 -1 -1 -1 -1 -2 -2 -2 -3 -3 -3 -3 -3 -3 -3 -3 -3
-0 -1 -1 -2 -2 -2 -2 -1 -1 -0 -0 -0 -3 0 3 4 4 4 3 2 1 1 0 -0 -1 -1 -1 -1 -1 -1 -2 -2 -2 -3 -3 -3 -3 -3 -3 -3 -3 -3 -3 -3
-1 -1 0 -1 1 1 -1 1 -1 -1 -1 -0 0 2 2 3 3 3 3 1 -0 -0 -1 -1 -1 -1 -1 -2 -2 -2 -3 -3 -3 -3 -4 -4 -3 -3 -3 -3 -3 -3 -3 -3
-2 -1 -1 -0 -0 -0 1 1 -0 -1 -0 -1 -0 0 1 2 2 2 2 1 0 -0 -1 -1 -1 -2 -2 -2 -3 -3 -3 -4 -4 -4 -4 -4 -4 -3 -3 -3 -3 -4 -4 -4
-2 -2 -2 -2 -1 -1 -1 -1 -0 -1 -1 -1 -1 -0 0 1 0 1 1 1 0 -0 -1 -2 -2 -2 -3 -3 -3 -4 -4 -4 -4 -4 -4 -4 -4 -4 -4 -4 -4 -5 -5 -5
-4 -3 -3 -3 -2 -2 -3 -1 -1 -1 -1 -0 -1 0 0 0 -0 -0 0 0 0 -1 -2 -2 -2 -3 -4 -4 -4 -5 -5 -5 -5 -5 -5 -5 -5 -5 -6 -6 -6 -6 -6 -6
-5 -5 -4 -4 -4 -5 -2 -2 -1 -1 -0 -1 -1 -1 -0 -0 -1 -1 -1 -1 -1 -2 -2 -3 -3 -4 -4 -5 -5 -5 -6 -6 -6 -6 -6 -6 -7 -7 -7 -7 -8 -8 -8 -8
-5 -5 -5 -5 -6 -4 -3 -2 -1 -1 -1 -1 -1 -1 -1 -1 -2 -2 -2 -2 -3 -3 -3 -4 -5 -5 -5 -6 -6 -6 -7 -7 -7 -7 -7 -8 -8 -8 -8 -9 -9 -9 -9 -9
-5 -6 -6 -7 -6 -8 -3 -2 -2 -2 -2 -1 -1 -0 -2 -3 -3 -2 -2 -2 -3 -4 -5 -5 -6 -6 -7 -7 -7 -7 -8 -8 -8 -8 -8 -8 -9 -9 -9 -9 -10 -10 -10 -10
-7 -7 -7 -6 -5 -4 -3 -2 -3 -4 -2 -2 -1 -1 -1 -3 -3 -3 -3 -3 -4 -5 -5 -6 -7 -7 -7 -8 -8 -8 -9 -9 -9 -9 -9 -9 -9 -10 -10 -10 -10 -10 -10 -10
-4 -6 -7 -8 -7 -7 -4 -4 -4 -3 -4 -3 -3 -3 -2 -3 -4 -4 -4 -5 -6 -6 -6 -7 -8 -8 -9 -9 -9 -9 -9 -10 -10 -10 -11 -11 -11 -11 -12 -11 -11 -11 -11 -11
-5 -5 -5 -6 -6 -6 -5 -5 -5 -5 -5 -4 -4 -4 -4 -4 -4 -4 -5 -5 -6 -7 -8 -8 -9 -9 -10 -10 -10 -11 -11 -11 -12 -12 -13 -13 -13 -13 -13 -13 -13 -13 -13 -13
-6 -6 -6 -6 -6 -6 -6 -5 -5 -5 -5 -6 -6 -6 -6 -6 -6 -6 -6 -7 -8 -8 -9 -10 -10 -11 -11 -11 -12 -12 -13 -13 -13 -14 -14 -14 -14 -14 -14 -14 -14 -14 -14 -14
-7 -6 -7 -7 -7 -7 -7 -7 -7 -7 -7 -7 -7 -7 -7 -7 -7 -8 -9 -9 -10 -10 -10 -11 -11 -12 -13 -13 -13 -14 -14 -14 -14 -14 -15 -15 -15 -15 -15 -15 -15 -15 -15 -15
-8 -8 -8 -8 -8 -8 -8 -8 -9 -9 -9 -9 -9 -9 -9 -9 -9 -10 -11 -11 -11 -12 -12 -13 -13 -14 -14 -15 -15 -15 -15 -15 -15 -15 -16 -16 -16 -16 -16 -16 -16 -16 -16 -16
Height
3080 3082 3080 3083 3087 3091 3095 3095 3096 3097 3098 3098 3098 3100 3102 3102 3103 3103 3104 3106 3110 3112 3115 3115 3117 3119 3122 3125 3128 3130 3133 3135 3136 3138 3140 3143 3145 3147 3150 3152 3154 3156 3159 3161
3077 3072 3078 3083 3085 3087 3089 3090 3092 3092 3094 3095 3095 3095 3098 3096 3099 3100 3100 3101 3106 3108 3110 3111 3113 3116 3118 3122 3125 3127 3129 3131 3133 3135 3137 3140 3142 3145 3147 3149 3151 3154 3156 3158
3069 3072 3074 3078 3079 3082 3083 3083 3088 3090 3091 3092 3092 3090 3091 3093 3093 3095 3097 3097 3101 3103 3106 3108 3109 3112 3114 3118 3121 3123 3126 3127 3129 3132 3134 3136 3138 3141 3143 3145 3148 3150 3153 3155
3066 3068 3070 3072 3074 3078 3079 3081 3084 3086 3088 3088 3089 3084 3084 3086 3087 3090 3092 3094 3096 3098 3101 3104 3105 3107 3110 3113 3116 3119 3121 3123 3125 3128 3130 3132 3134 3137 3139 3141 3144 3147 3149 3152
3059 3060 3063 3066 3069 3073 3073 3077 3079 3082 3084 3084 3084 3084 3075 3080 3080 3082 3085 3088 3090 3092 3094 3097 3101 3103 3105 3108 3111 3113 3116 3118 3121 3123 3126 3128 3130 3133 3135 3137 3140 3143 3146 3148
3054 3057 3059 3060 3063 3067 3069 3073 3076 3079 3080 3079 3075 3079 3070 3071 3073 3076 3077 3081 3084 3086 3088 3090 3093 3096 3099 3102 3105 3107 3111 3113 3116 3119 3121 3124 3126 3128 3130 3133 3136 3139 3141 3144
3049 3050 3052 3056 3059 3062 3064 3069 3074 3080 3080 3073 3069 3071 3062 3065 3067 3068 3071 3073 3076 3078 3081 3083 3084 3088 3091 3094 3098 3101 3105 3109 3112 3114 3117 3119 3121 3124 3126 3129 3131 3134 3137 3139
3042 3047 3046 3048 3051 3055 3057 3062 3062 3071 3072 3064 3064 3058 3054 3058 3061 3060 3063 3066 3068 3070 3073 3075 3077 3080 3084 3088 3093 3096 3100 3104 3107 3109 3112 3114 3116 3119 3121 3124 3126 3129 3132 3134
3038 3040 3039 3040 3044 3050 3051 3054 3057 3058 3059 3060 3054 3051 3050 3051 3052 3053 3056 3057 3060 3064 3066 3069 3071 3075 3078 3082 3087 3091 3095 3099 3102 3104 3106 3109 3111 3114 3116 3119 3121 3124 3126 3129
3033 3033 3033 3036 3040 3043 3045 3048 3053 3054 3061 3059 3046 3044 3041 3043 3044 3045 3048 3050 3053 3056 3060 3063 3066 3069 3072 3077 3081 3086 3090 3094 3097 3099 3101 3104 3106 3108 3111 3113 3116 3118 3120 3123
3027 3029 3031 3032 3031 3032 3038 3040 3044 3046 3047 3045 3046 3038 3036 3038 3040 3041 3043 3045 3048 3051 3054 3057 3060 3063 3068 3073 3077 3081 3084 3089 3091 3094 3096 3099 3102 3104 3106 3108 3110 3112 3115 3117
3020 3024 3024 3025 3026 3028 3029 3032 3036 3038 3039 3038 3036 3032 3033 3034 3035 3037 3039 3041 3044 3048 3050 3053 3057 3060 3064 3068 3072 3076 3079 3083 3086 3089 3092 3094 3097 3099 3101 3103 3105 3107 3109 3112
3015 3018 3021 3022 3023 3021 3021 3024 3028 3031 3032 3030 3034 3028 3030 3032 3033 3033 3035 3037 3040 3044 3047 3050 3053 3057 3061 3064 3068 3071 3075 3079 3081 3084 3087 3089 3092 3094 3096 3099 3101 3103 3104 3105
3010 3009 3010 3009 3009 3011 3011 3013 3018 3025 3026 3023 3019 3023 3026 3028 3029 3030 3031 3034 3037 3040 3043 3046 3050 3053 3057 3061 3065 3068 3071 3074 3076 3079 3082 3085 3087 3089 3091 3093 3095 3096 3097 3098
3006 3004 3006 3005 3006 3007 3007 3008 3010 3013 3014 3018 3014 3017 3023 3025 3026 3027 3028 3030 3032 3035 3039 3042 3046 3050 3054 3057 3060 3063 3066 3070 3073 3076 3078 3080 3082 3083 3085 3086 3087 3088 3089 3090
3000 2999 3001 3001 3002 3003 3003 3004 3005 3006 3008 3009 3010 3010 3016 3019 3020 3022 3024 3026 3028 3031 3035 3039 3042 3045 3049 3052 3056 3059 3062 3065 3068 3070 3072 3074 3075 3076 3078 3079 3081 3082 3083 3084
2996 2995 2997 2996 2998 2998 2996 2994 2997 2999 3001 3003 3001 3006 3010 3012 3014 3018 3020 3021 3023 3026 3030 3033 3037 3041 3044 3048 3051 3054 3057 3059 3061 3063 3065 3067 3069 3070 3072 3073 3074 3074 3075 3076
2988 2990 2993 2993 2995 2995 2986 2988 2990 2990 2991 2992 2993 2996 3000 3004 3007 3009 3012 3015 3018 3021 3025 3028 3032 3036 3040 3043 3045 3048 3050 3052 3054 3056 3057 3059 3061 3062 3063 3064 3065 3065 3066 3066
2983 2984 2985 2988 2989 2986 2983 2984 2984 2983 2984 2984 2987 2989 2992 2995 2998 3001 3004 3007 3012 3016 3019 3023 3027 3030 3033 3036 3039 3041 3043 3044 3046 3047 3049 3050 3051 3052 3053 3054 3055 3055 3055 3055
2978 2980 2982 2983 2984 2983 2978 2978 2977 2978 2977 2979 2980 2981 2982 2987 2989 2994 2996 3001 3005 3009 3014 3017 3020 3024 3026 3029 3031 3033 3035 3037 3038 3039 3040 3042 3043 3044 3044 3044 3045 3045 3044 3044
2970 2973 2974 2976 2977 2974 2974 2974 2973 2975 2977 2973 2975 2976 2977 2980 2985 2990 2992 2996 2999 3003 3007 3010 3014 3017 3019 3021 3023 3026 3027 3029 3030 3031 3032 3033 3033 3033 3033 3033 3033 3033 3033 3032
2965 2967 2968 2973 2974 2973 2969 2969 2972 2971 2969 2970 2972 2973 2975 2978 2981 2984 2987 2990 2994 2997 3001 3004 3007 3010 3012 3014 3016 3017 3019 3020 3021 3021 3022 3022 3022 3022 3022 3022 3022 3022 3022 3022
2964 2963 2963 2966 2965 2964 2964 2964 2965 2966 2967 2969 2971 2972 2974 2976 2978 2981 2983 2985 2988 2991 2995 2997 3000 3003 3005 3006 3007 3008 3009 3010 3011 3011 3011 3012 3012 3011 3011 3011 3011 3011 3011 3010
2958 2959 2959 2961 2961 2961 2962 2963 2963 2964 2965 2966 2968 2970 2971 2973 2974 2976 2977 2980 2983 2985 2988 2991 2994 2995 2997 2998 2999 3000 3000 3001 3001 3001 3001 3001 3000 3000 3000 3000 3000 3000 3000 3000
2955 2955 2955 2954 2955 2956 2956 2958 2959 2960 2961 2962 2964 2965 2967 2969 2969 2971 2973 2975 2978 2980 2983 2984 2986 2987 2989 2990 2990 2990 2990 2990 2990 2990 2989 2989 2989 2989 2989 2989 2989 2989 2989 2988
2949 2950 2951 2950 2950 2950 2951 2952 2953 2954 2955 2957 2958 2959 2961 2963 2964 2966 2968 2970 2972 2974 2975 2977 2978 2978 2979 2979 2980 2980 2979 2979 2979 2979 2979 2978 2978 2978 2978 2978 2979 2978 2977 2977
Wind_Speed
27 29 34 31 29 26 17 18 10 15 18 21 17 23 25 24 18 20 24 24 24 22 21 22 22 21 20 20 19 17 16 16 16 16 16 17 17 17 17 17 17 17 17 16
26 34 32 23 22 26 26 24 19 14 15 18 18 21 21 23 22 21 23 23 23 23 24 25 25 24 23 21 20 19 17 18 18 17 17 16 17 17 17 18 18 18 18 17
33 25 19 28 26 25 24 27 25 21 16 16 20 25 25 25 27 24 26 26 24 23 23 26 27 25 24 23 22 21 19 20 20 19 18 17 18 18 19 19 19 19 19 19
23 30 23 22 28 26 28 26 22 21 20 14 16 7 22 22 30 30 31 30 28 26 25 27 29 28 27 26 24 24 22 23 23 21 20 20 19 20 20 20 20 21 21 21
22 20 29 28 26 21 26 23 19 22 22 21 18 9 21 26 30 31 34 37 37 35 33 31 30 31 30 29 27 27 25 25 24 24 22 22 21 20 20 21 21 21 21 22
31 21 20 25 28 23 21 17 13 13 12 7 26 22 18 26 30 30 32 36 38 37 37 37 34 34 33 33 32 31 28 26 25 24 24 23 23 22 22 22 22 22 22 23
30 28 25 22 20 22 25 19 5 1 2 6 13 21 32 17 27 33 34 34 33 36 36 35 38 37 37 38 35 32 30 27 24 24 24 24 23 23 22 22 22 22 23 23
26 14 32 29 29 25 29 26 10 8 5 5 15 14 19 24 33 27 32 30 32 33 33 32 33 34 37 38 35 33 30 26 25 24 24 24 23 22 22 22 22 22 23 23
19 15 16 28 31 27 28 30 28 6 3 1 8 11 18 24 28 37 39 32 31 30 31 30 29 30 31 34 35 33 29 26 25 25 24 23 22 21 21 21 22 22 23 23
16 8 16 23 25 28 25 26 14 14 4 5 9 17 17 16 26 31 31 34 32 28 27 28 29 29 31 33 32 30 29 27 25 24 23 22 21 21 20 20 21 21 22 22
30 19 9 17 24 33 31 25 17 16 13 5 2 8 19 20 24 19 22 24 27 26 24 24 26 27 27 27 28 27 27 25 24 23 22 21 20 20 19 19 19 20 21 21
37 18 16 21 17 25 30 33 32 14 8 18 4 9 5 10 15 21 21 19 23 25 23 23 23 22 24 25 26 26 25 24 23 22 21 20 19 18 18 18 18 18 19 20
27 18 7 4 15 21 26 34 38 35 16 17 8 7 22 27 16 16 20 20 21 24 24 24 24 25 25 25 26 25 24 23 22 21 20 18 17 16 15 16 17 18 19 21
21 26 20 14 8 10 26 36 38 38 24 24 33 22 16 16 19 20 19 21 22 24 26 26 26 26 25 24 23 24 24 22 21 20 18 17 18 19 21 23 25 27 28 29
23 20 23 24 16 12 12 12 25 40 44 23 30 36 32 23 16 17 21 23 24 25 27 27 25 25 25 25 25 24 23 23 22 20 21 22 24 27 28 28 27 26 26 27
27 17 18 20 22 24 22 19 18 20 33 45 39 35 25 20 25 24 23 24 25 27 27 27 27 27 27 26 26 26 26 25 24 24 26 28 28 27 25 25 26 28 29 30
23 22 18 12 17 15 21 31 29 28 30 29 36 33 32 31 25 24 29 31 30 30 30 29 28 28 28 28 28 28 28 27 28 28 27 26 26 27 27 28 28 29 30 31
16 23 17 9 8 5 17 22 24 24 29 34 35 30 32 30 28 27 28 31 31 31 31 30 29 29 29 30 30 30 30 29 28 27 26 26 26 27 27 29 30 31 32 33
20 18 14 11 12 19 15 10 17 20 22 30 33 35 37 32 27 26 29 32 31 33 33 31 31 31 32 31 32 31 30 28 27 27 26 26 27 29 30 32 33 35 36 37
31 22 19 10 5 7 5 14 22 25 21 14 16 15 27 32 28 27 28 31 35 35 35 34 34 33 32 32 32 30 29 28 27 27 29 30 32 34 36 37 38 39 40 40
19 23 30 26 11 10 15 16 11 10 10 14 16 13 14 22 25 23 26 31 35 38 38 37 36 34 32 32 31 29 28 28 30 31 34 36 38 38 39 39 40 40 39 38
13 14 17 21 10 13 18 19 17 13 11 10 8 10 12 15 17 19 22 25 33 37 38 37 35 34 33 30 29 29 30 32 33 35 36 37 38 38 39 39 38 38 38 37
10 13 6 10 9 11 8 13 16 18 13 10 8 8 7 9 12 15 18 22 27 32 34 33 31 29 27 28 29 31 32 34 35 36 36 37 38 39 37 36 36 36 36 37
11 13 15 14 17 16 14 13 12 13 15 15 13 14 17 16 17 19 20 21 24 26 27 27 26 27 27 29 30 32 33 35 35 36 37 37 36 35 34 35 36 36 36 36
15 14 14 19 18 17 18 16 17 20 20 20 20 19 18 20 22 23 22 23 24 25 26 26 27 28 29 31 32 33 34 35 36 36 35 35 34 34 34 35 36 36 37 37
17 19 18 19 20 23 20 18 20 21 21 21 21 20 21 23 25 24 24 24 25 26 27 28 29 30 31 32 32 34 35 36 36 35 34 34 34 35 36 37 36 37 38 37
Wind_Direction
227 225 230 233 237 240 226 242 263 246 249 254 260 249 237 248 251 238 236 234 233 236 226 229 230 231 232 233 234 237 238 236 233 232 230 230 230 229 229 229 227 227 224 223
228 232 240 241 243 240 230 239 235 243 247 260 255 252 240 245 246 237 237 238 226 228 222 226 231 231 235 236 237 239 239 238 236 236 235 234 233 233 230 230 229 229 228 226
232 240 242 229 229 227 232 234 237 240 250 253 253 256 246 235 242 235 232 233 229 228 226 229 235 235 238 240 241 240 240 240 239 239 238 236 234 232 232 231 230 230 229 227
238 236 238 237 236 235 237 241 243 236 239 243 248 265 255 248 247 243 233 233 240 241 240 234 238 239 240 241 240 238 239 242 242 240 240 239 237 236 234 232 232 230 230 229
224 234 232 233 237 232 238 239 239 234 235 240 241 246 259 243 244 240 236 235 239 244 246 244 240 241 241 241 239 241 238 242 244 244 244 243 241 238 237 236 234 235 234 233
225 236 234 233 236 229 229 221 218 224 226 252 237 229 251 238 241 236 239 240 239 241 244 247 242 238 240 238 237 239 240 241 244 247 247 246 246 241 239 238 237 236 236 235
225 230 233 231 222 214 217 206 116 139 196 232 221 223 234 234 237 241 243 242 241 240 239 238 242 239 236 237 236 238 241 242 245 249 249 248 247 245 243 242 241 241 241 239
216 229 233 233 226 224 212 200 193 185 201 211 210 224 233 237 232 241 241 242 240 237 235 232 236 239 235 236 236 236 239 241 245 248 248 249 248 247 246 246 245 245 245 244
209 223 231 226 222 220 207 207 220 213 214 167 218 235 239 239 235 235 237 240 240 236 234 234 233 232 232 230 229 232 235 238 241 245 246 248 249 248 248 247 247 247 248 247
212 218 223 218 213 214 214 211 201 203 174 232 227 227 235 239 241 236 234 238 237 235 231 229 228 228 226 221 223 226 231 234 238 242 243 243 245 248 250 250 249 249 249 249
216 220 222 213 215 216 208 205 204 206 219 184 197 237 236 244 244 249 242 235 232 229 225 223 224 222 219 218 221 224 228 232 236 236 238 240 241 244 247 248 248 250 251 251
213 223 227 230 227 220 220 221 212 202 208 223 229 238 214 244 248 241 242 233 226 223 220 215 211 209 209 212 217 222 228 229 229 230 231 232 235 238 241 244 248 250 253 253
216 215 194 222 234 228 224 225 224 221 225 223 194 243 248 251 256 242 236 227 219 216 214 211 210 210 212 216 219 222 223 223 225 226 225 222 222 226 232 240 247 251 255 258
217 213 214 224 219 220 220 230 226 223 229 232 234 235 236 245 243 243 231 222 219 215 212 213 214 216 216 217 218 220 221 219 214 213 216 224 236 246 254 260 263 264 265 266
213 226 225 231 241 241 240 242 233 226 229 224 244 247 246 247 255 258 244 229 222 220 216 214 214 215 217 218 218 214 210 211 216 224 236 247 256 263 265 266 266 267 269 271
226 233 237 243 247 254 254 245 235 233 238 237 242 248 251 241 244 244 241 234 227 219 218 216 213 213 213 211 210 210 215 222 233 245 254 260 259 259 260 262 265 267 269 270
243 242 251 261 261 253 263 247 246 249 253 256 252 262 257 247 252 250 250 248 234 225 218 214 212 211 212 214 217 221 228 238 248 254 251 250 252 255 258 261 263 265 266 268
227 231 217 224 240 256 255 260 257 256 257 255 256 254 248 247 244 239 239 236 232 224 217 214 215 218 220 224 229 235 243 250 250 249 252 255 258 260 262 265 267 268 269 270
246 227 217 219 223 253 249 245 260 263 271 255 257 253 251 247 245 240 229 225 223 222 219 218 222 225 228 234 239 244 248 247 250 254 259 262 266 270 273 275 275 276 276 276
236 238 236 214 213 219 241 253 254 252 256 257 241 248 239 239 237 231 223 222 223 221 221 225 228 230 235 242 245 247 248 253 258 262 267 270 272 274 274 274 274 274 275 275
211 219 220 224 238 248 244 255 264 211 241 243 235 230 228 227 231 232 232 227 225 224 226 228 231 235 244 246 246 247 251 255 261 265 268 270 272 274 276 277 279 279 277 275
233 202 217 218 224 253 244 243 233 241 237 247 243 229 231 227 230 233 232 227 227 230 231 233 235 242 243 241 244 250 256 261 265 268 270 273 275 278 280 281 279 276 274 272
239 218 217 207 221 236 252 241 244 243 250 251 247 241 232 246 246 240 235 232 226 227 231 234 232 232 237 245 251 256 261 265 268 270 272 274 278 280 280 278 276 274 274 273
247 240 230 236 246 246 247 254 255 254 253 248 236 246 261 257 249 242 235 227 220 217 219 224 232 240 248 254 258 261 264 266 268 271 273 276 278 277 275 273 273 273 272 273
255 250 245 248 252 257 258 253 244 243 243 247 249 249 247 242 238 234 228 221 220 226 233 241 249 254 257 259 261 266 269 272 275 277 277 276 275 274 273 273 273 274 275 276
253 251 251 261 263 263 263 260 249 243 244 245 246 244 238 234 229 223 225 231 236 241 246 250 253 255 262 265 266 269 272 275 276 276 275 274 273 273 273 272 272 273 273 273